Simultaneous Nadir Overpasses (SNOs) Predictions

Prediction of SNOs between METOP-B and TERRA Satellite Orbit:

Table of predicted SNOs for the next 14.0 days since TLE Epoch: 6/30/2018
Index Date (METOP-B) Time (METOP-B) Lat,Lon (METOP-B) SZA (METOP-B ) Date (TERRA) Time (TERRA) Lat,Lon (TERRA) SZA (TERRA ) Distance(km) Time Diff (sec)
1 06/30/2018 04:19:16 81.35, 163.24 61.09 06/30/2018 04:20:06 81.36, 163.40 61.14 2.83 50
2 06/30/2018 05:09:55 -81.36, -28.81 118.84 06/30/2018 05:09:33 -81.36, -29.01 118.87 3.31 22
3 07/02/2018 23:53:36 81.35,-130.35 61.26 07/02/2018 23:54:22 81.35,-130.38 61.28 0.52 46
4 07/03/2018 00:44:16 -81.35, 37.21 118.71 07/03/2018 00:43:49 -81.35, 37.24 118.72 0.74 27
5 07/05/2018 19:27:55 81.35, -63.96 61.49 07/05/2018 19:28:36 81.36, -63.83 61.53 2.21 41
6 07/05/2018 20:18:34 -81.36, 104.00 118.43 07/05/2018 20:18:03 -81.36, 103.81 118.47 3.17 31
7 07/08/2018 15:02:14 81.36, 2.81 61.82 07/08/2018 15:02:51 81.36, 2.66 61.82 2.51 37
8 07/08/2018 15:52:54 -81.36, 170.39 118.15 07/08/2018 15:52:18 -81.36, 170.33 118.17 1.03 36
9 07/11/2018 10:36:34 81.36, 69.17 62.15 07/11/2018 10:37:06 81.36, 69.10 62.16 1.23 32




NCC Satellite Simultaneous Nadir Overpasses (SNOs) Prediction Service
